Home > Weather > San Antonio > Past weeks

Flag for USA Past Weather in San Antonio, Texas, USA — Yesterday and Last 2 Weeks

Now
86 °F

Broken clouds.


Feels Like: 93 °F
Forecast: 75 / 90 °F
Wind: 8 mph from East

Location: San Antonio International Airport

Current Time: Jun 26, 2016 at 7:37:19 PM

Latest Report: Jun 26, 2016 at 6:51 PM


Visibility: 10 mi

Pressure: 29.98 "Hg

Humidity: 65%

Dew Point: 73 °F

Location of San AntonioLocation

Past Weather in San Antonio — Graph

°F

San Antonio Temperature Yesterday

Maximum temperature yesterday: 85 °F (at 11:51 AM)
Minimum temperature yesterday: 76 °F (at 9:51 PM)
Average temperature yesterday: 80 °F

High & Low Weather Summary for the Past Weeks

 TemperatureHumidityPressure
High95 °F (Jun 15, 3:51 PM)94% (Jun 20, 6:51 AM)30.17 "Hg (Jun 20, 6:51 AM)
Low74 °F (Jun 20, 5:51 AM)43% (Jun 15, 3:51 PM)29.77 "Hg (Jun 14, 5:51 PM)
Average83 °F70%29.96 "Hg
* Reported Jun 11 5:51 PM — Jun 26 5:51 PM, San Antonio, Weather by CustomWeather, © 2016

Note: Actual official high and low records may vary slightly from our data, if they occured in-between our weather recording intervals... More about our weather records

Advertising

San Antonio Weather History for the Previous 24 Hours

Scroll right to see more
 ConditionsComfort  
Time TempWeatherWind HumidityBarometerVisibility
5:51 PM
Sun, Jun 26
85 °FBroken clouds.8 mph65%30.00 "Hg10 mi
4:51 PM86 °FBroken clouds.13 mph63%30.01 "Hg10 mi
3:51 PM89 °FBroken clouds.15 mph57%30.01 "Hg10 mi
2:51 PM86 °FThunderstorms. Broken clouds.17 mph63%30.04 "Hg10 mi
1:51 PM88 °FBroken clouds.10 mph57%30.04 "Hg10 mi
12:51 PM88 °FBroken clouds.10 mph59%30.06 "Hg10 mi
11:51 AM85 °FPartly sunny.15 mph63%30.07 "Hg10 mi
10:51 AM85 °FBroken clouds.9 mph70%30.08 "Hg10 mi
9:51 AM82 °FBroken clouds.9 mph74%30.09 "Hg10 mi
8:51 AM79 °FPartly sunny.7 mph84%30.07 "Hg10 mi
7:58 AM78 °FPartly sunny.6 mph87%30.11 "Hg10 mi
6:51 AM77 °FPassing clouds.7 mph90%30.04 "Hg10 mi
5:51 AM77 °FPassing clouds.7 mph90%30.03 "Hg10 mi
4:51 AM78 °FPassing clouds.8 mph87%30.03 "Hg10 mi
3:51 AM78 °FPassing clouds.8 mph87%30.02 "Hg10 mi
2:51 AM78 °FPassing clouds.13 mph87%30.01 "Hg10 mi
1:51 AM78 °FPassing clouds.12 mph90%30.01 "Hg10 mi
12:51 AM79 °FPassing clouds.13 mph88%30.01 "Hg10 mi
11:51 PM
Sat, Jun 25
77 °FPassing clouds.7 mph90%30.00 "Hg10 mi
10:51 PM76 °FPassing clouds.6 mph91%29.97 "Hg10 mi
9:51 PM76 °FPassing clouds.3 mph91%29.97 "Hg10 mi
8:51 PM78 °FBroken clouds.5 mph87%29.96 "Hg10 mi
7:51 PM78 °FPartly sunny.5 mph87%29.96 "Hg10 mi
Weather by CustomWeather, © 2016

See weather overviewHow to use our weather pages